Regional Weather Roundup
Issued by NWS

Home | Current Version | Previous Version | Text Only | Print | Product List | Glossary Off
Versions: 1 2 3 4 5 6 7 8 9 10 11 12 13 14 15 16 17 18 19 20 21 22 23 24 25 26 27 28 29 30 31 32 33 34 35 36 37 38 39 40 41 42 43 44 45 46 47 48 49 50

000
ASUS45 KTFX 210504
RWRMT
MONTANA HOURLY WEATHER ROUNDUP
NATIONAL WEATHER SERVICE GREAT FALLS MT
1104 PM MDT WED AUG 20 2014

NOTE: "FAIR" INDICATES FEW OR NO CLOUDS BELOW 12000 FEET WITH NO
SIGNIFICANT WEATHER AND/OR OBSTRUCTIONS TO VISIBILITY.

* THESE STATIONS ARE NOT UNDER NWS QUALITY CONTROL. THEY DO NOT
   REPORT WEATHER SUCH AS PRECIPITATION OR FOG.

MTZ001>007-043-210600-
WEST OF THE DIVIDE
CITY           SKY/WX    TMP DP  RH WIND       PRES   REMARKS
KALISPELL      PTCLDY    55  54  96 N6        29.92R
MISSOULA       PTCLDY    59  52  78 E6        29.92R
BUTTE          CLOUDY    55  48  77 CALM      30.03S
MULLAN PASS    PTCLDY    52  45  77 NW3       30.04R
* ESSEX        N/A       51  49  93 N/A        N/A
* LINCOLN      N/A       63  48  58 NE10G20    N/A
* LOOKOUT PASS N/A       53  48  83 N/A        N/A
* POLSON       N/A       57  54  90 N1         N/A
* RONAN APT    PTCLDY    63  57  81 N/A        N/A
* SEELEY LAKE  N/A       60  50  70 S3G9       N/A
* THOMP F APT  PTCLDY    50  47  89 NE6G16     N/A
* YAAK HILL    N/A       57  53  87 NE2        N/A
$$

MTZ008-052>055-210600-
SOUTHWEST MONTANA
CITY           SKY/WX    TMP DP  RH WIND       PRES   REMARKS
BOZEMAN        CLOUDY    63  50  63 S5        29.98R
DILLON         CLOUDY    54  48  80 SW7       30.02R
W YELLOWSTONE  CLOUDY    48  48 100 CALM      30.12S
* THREE FORKS  CLOUDY    63  55  75 N/A        N/A
* BOULDER HILL N/A       53  44  72 SW8        N/A
* MONIDA PASS  N/A       49  48  96 SE10       N/A
* RAYNOLDS PAS N/A       49  30  48 SE14G24    N/A
* WHITEHALL    N/A       58  53  84 S2         N/A
* WISE RIVER   N/A       53  46  77 SE3        N/A
$$

MTZ009>010-012-014-046-048-049-054-210600-
EAST SLOPES AND CENTRAL MONTANA
CITY           SKY/WX    TMP DP  RH WIND       PRES   REMARKS
CUT BANK       PTCLDY    54  52  93 NW6       30.00R
GREAT FALLS    CLOUDY    57  52  83 N5        29.98R
HELENA         CLOUDY    64  50  61 NW6       29.94R
MALMSTROM AFB  CLOUDY    57  55  93 NE3       29.99R
* CONRAD       MOCLDY    52  52 100 NW7        N/A
* DEARBORN     N/A       60  51  72 VRB6G20    N/A
* EAST GLACIER N/A       50  48  93 W2         N/A
* MONARCH      N/A       53  49  86 NW7        N/A
* PENDROY      N/A       52  51  96 N10G16     N/A
* ROGERS PASS  N/A       52  48  86 S2         N/A
* SAINT MARY   N/A       52  49  90 N3G9       N/A
* SWEET GRASS  N/A       55  55 100 N12        N/A
$$

MTZ011-013-016-021-035-040-045-047-050-051-210600-
NORTH CENTRAL MONTANA
CITY           SKY/WX    TMP DP  RH WIND       PRES   REMARKS
HAVRE          LGT RAIN  63  59  87 CALM      29.93R
LEWISTOWN      CLOUDY    61  54  78 NW6       29.95R
* CHESTER      N/A       58  53  84 NE6        N/A
* DENTON       N/A       61  53  75 NW18G24    N/A
* GEYSER       N/A       57  50  78 NE10G16    N/A
* JUDITH GAP   N/A       55  55 100 S9         N/A
* LOMA         N/A       59  56  90 NE12       N/A
$$

MTZ017>020-022>027-061-062-210600-
NORTHEAST MONTANA
CITY           SKY/WX    TMP DP  RH WIND       PRES   REMARKS
GLASGOW        PTCLDY    66  57  73 W16G23    29.83R
GLENDIVE       CLEAR     63  57  81 NW7       29.83S
JORDAN         MOCLDY    66  54  65 NW9       29.84R
SIDNEY         CLEAR     64  59  84 CALM      29.80R
WOLF POINT     MOCLDY    64  54  70 N5        29.81R
* BEAVER HILL  N/A       63  58  84 N/A        N/A
* CIRCLE       N/A       61  55  81 N/A        N/A
* LINDSAY DVD  N/A       60  54  81 NW9        N/A
* SACO         N/A       67  57  70 S8         N/A
$$

MTZ028>042-056>058-210600-
SOUTHCENTRAL AND SOUTHEAST MONTANA
CITY           SKY/WX    TMP DP  RH WIND       PRES   REMARKS
BAKER          CLEAR     63  57  81 W3        29.84S
BILLINGS       LGT RAIN  63  55  75 SW12      29.92S
LIVINGSTON     CLOUDY    64  46  52 SW17      29.96S
MILES CITY     CLEAR     63  52  68 N5        29.82S
* LAUREL APT   CLOUDY    59  54  84 N/A        N/A
* ROUNDUP APT  CLOUDY    59  54  84 N/A        N/A
* ALZADA       N/A       63  52  68 NW1        N/A
* HYSHAM       N/A       63  51  65 NW11G16    N/A
* LAME DEER    N/A       66  44  45 NE6        N/A
* REED POINT   N/A       59  56  90 N/A        N/A
* ROSCOE HILL  N/A       56  48  75 N/A        N/A
$$

REGIONAL REPORTS...DAKOTAS
CITY           SKY/WX    TMP DP  RH WIND       PRES   REMARKS
WILLISTON      CLEAR     63  61  93 N3        29.79R
DICKINSON      CLEAR     61  59  93 NW7       29.80R
BEACH          N/A       57  57 100 W3        29.82S
CROSBY         FOG       59  59 100 CALM      29.80R VSB 1 1/2
TIOGA          CLOUDY    63  63 100 CALM      29.82S
WATFORD CITY   CLEAR     59  59 100 SW3       29.78R
BISMARCK       MOCLDY    70  70 100 NW8       29.73R
GRAND FORKS    CLOUDY    72  66  81 SE10      29.79R
FARGO          CLOUDY    73  66  79 SE10      29.78R
BUFFALO SD     CLEAR     63  57  81 W3        29.78R
RAPID CITY     CLEAR     66  57  73 N13       29.82S
$$

REGIONAL REPORTS...WYOMING/IDAHO/WASHINGTON
CITY           SKY/WX    TMP DP  RH WIND       PRES   REMARKS
GILLETTE       MOCLDY    57  46  67 CALM      29.92R
SHERIDAN       MOCLDY    63  48  58 CALM      29.90R
CODY           CLOUDY    61  46  58 W3        30.01S
YELLOWSTONE LA CLOUDY    43  43 100 CALM      30.19S
SALMON         CLOUDY    57  54  90 N3        30.00R
MULLAN PASS    PTCLDY    52  45  77 NW3       30.04S
SAND POINT     MOCLDY    59  59 100 N9        29.92R
SPOKANE        PTCLDY    64  55  73 S7        29.88R

$$




USA.gov is the U.S. government's official web portal to all federal, state and local government web resources and services.